{"data":{"norad_id":57138,"epoch":"2026-09-20T15:50:56.433696Z","epoch_age_seconds":107060,"freshness":"FRESH","line1":"1 57138U 23090AP  26263.66037539  .00000904  00000+0  42377-4 0  9995","line2":"2 57138  43.0049 242.0822 0000834 296.9406  63.1361 15.27578474180174","mean_motion":15.27578474,"eccentricity":8.34e-5,"inclination_deg":43.0049,"raan_deg":242.0822,"arg_perigee_deg":296.9406,"mean_anomaly_deg":63.1361,"bstar":4.2377e-5,"rev_number":18017,"period_min":94.266842882993,"perigee_km":482.48144213494,"apogee_km":483.62588873793,"semimajor_km":6861.1906654364,"source":"CELESTRAK","updated_at":"2026-09-21T09:00:33.565945Z"}}